• MPC Preparation (Info)

  • MPEC 2014-R88 : 2014 QK439

    The following Minor Planet Electronic Circular may be linked-to from your own Web pages, but must not otherwise be redistributed electronically.

    A form allowing access to any MPEC is at the bottom of this page.


    Read MPEC 2014-R87 Read MPEC 2014-R89


    M.P.E.C. 2014-R88                                Issued 2014 Sept. 12, 14:16 UT
    
         The Minor Planet Electronic Circulars contain information on unusual
             minor planets and routine data on comets.  They are published
       on behalf of Commission 20 of the International Astronomical Union by the
              Minor Planet Center, Smithsonian Astrophysical Observatory,
                              Cambridge, MA 02138, U.S.A.
    
                 Prepared using the Tamkin Foundation Computer Network
    
                                  MPC@CFA.HARVARD.EDU
                URL https://www.minorplanetcenter.net/    ISSN 1523-6714
    
                                      2014 QK439
    
    Observations:
         K14Qh9K* C2014 08 31.45949 23 53 39.587-33 15 35.73         20.9 wLER088F51
         K14Qh9K  C2014 08 31.46289 23 53 39.743-33 15 12.57         19.6 wLER088F51
         K14Qh9K  C2014 08 31.48149 23 53 40.347-33 13 04.45         20.5 wLER088F51
         K14Qh9K  C2014 08 31.48490 23 53 40.461-33 12 40.65         20.1 wLER088F51
         K14Qh9K  C2014 08 31.49253 23 53 40.712-33 11 47.94         20.1 wLER088F51
         K14Qh9K  C2014 09 04.52492 23 57 24.682-25 12 51.80         20.8 wLER088F51
         K14Qh9K  C2014 09 04.54647 23 57 25.065-25 10 13.81         20.9 wLER088F51
         K14Qh9K  C2014 09 04.55726 23 57 25.296-25 08 54.16         20.6 wLER088F51
         K14Qh9K KC2014 09 12.42893 00 01 42.83 -09 37 07.0          20.6 RoER088291
         K14Qh9K KC2014 09 12.42967 00 01 42.83 -09 37 01.9          20.2 RoER088291
         K14Qh9K KC2014 09 12.43040 00 01 42.85 -09 36 56.9          20.4 RoER088291
    
    Observer details:
    291 LPL/Spacewatch II.  Observers T. H. Bressi, A. F. Tubbiolo.  1.8-m f/2.7
        reflector + CCD.
    F51 Pan-STARRS 1, Haleakala.  Observers N. Primak, A. Schultz, T. Goggia,
        M. Willman.  Measurers B. Bolin, K. Chambers, S. Chastel, L. Denneau,
        H. Flewelling, M. Huber, E. Magnier, E. Schunova, R. Wainscoat, C. Waters,
        P. Veres.  1.8-m Ritchey-Chretien + CCD.
    
    Orbital elements:
    2014 QK439                                               Earth MOID = 0.1255 AU
    Epoch 2014 Dec. 9.0 TT = JDT 2457000.5                  MPC
    M  31.60453              (2000.0)            P               Q
    n   0.30092121     Peri.  336.74210     +0.88777272     +0.46008527
    a   2.2054684      Node   355.79147     -0.38823476     +0.73278343
    e   0.4926842      Incl.   10.56768     -0.24725163     +0.50134817
    P   3.28           H   23.4           G   0.15           U   7
    Residuals in seconds of arc
    140831 F51  0.3-  0.3+    140831 F51  0.0   0.2-    140912 291  0.1-  0.1-
    140831 F51  0.2+  0.1+    140904 F51  0.0   0.3-    140912 291  0.1-  0.0
    140831 F51  0.0   0.2-    140904 F51  0.1-  0.1-    140912 291  0.2+  0.1+
    140831 F51  0.0   0.0     140904 F51  0.2+  0.4+
    
    Ephemeris:
    2014 QK439               a,e,i = 2.21, 0.49, 11                  q = 1.1189
    Date    TT    R. A. (2000) Decl.     Delta      r     Elong.  Phase     V
    2014 08 13    23 13 20.5 -59 24 49   0.1640  1.1285   131.5    42.3    21.4
    ...
    2014 08 28    23 49 17.1 -39 38 31   0.1300  1.1191   144.8    31.3    20.6
    ...
    2014 09 05    23 57 47.8 -24 14 37   0.1252  1.1247   157.0    20.5    20.2
    ...
    2014 09 11    00 01 12.5 -12 18 26   0.1300  1.1336   166.5    12.0    20.0
    2014 09 12    00 01 35.8 -10 24 34   0.1315  1.1355   167.9    10.7    19.9
    2014 09 13    00 01 56.4 -08 33 16   0.1333  1.1375   169.3     9.5    19.9
    ...
    2014 09 19    00 03 16.5 +01 28 09   0.1476  1.1516   174.4     4.9    20.0
    ...
    2014 09 27    00 04 02.9 +11 29 01   0.1760  1.1761   169.7     8.8    20.6
    ...
    2014 10 12    00 06 41.8 +21 44 32   0.2517  1.2368   159.3    16.6    21.8
    
    A. U. Tomatic                (C) Copyright 2014 MPC           M.P.E.C. 2014-R88
    

    Read MPEC 2014-R87 Read MPEC 2014-R89


    MPEC number:

    Enter an MPEC number in one of the following forms:

    • 1997-B01 (the full form)
    • J97B01 (the packed version of the full form)
    • B01 (the abbreviated form)